When you browse on this site, cookies collect data to enhance your experience and personalize the content and advertising you see.
Visit our Privacy Policy to learn more. By continuing to use the site, you agree to this use of cookies and data.

Meteo pe oră la Dziaduszyn

Astăzi, 19 Septembrie, Sâmbătă

Timp Temperatura Precipitaţii Vânt Presiune Umiditate
00:00 +7°C° 0 mm 3 m/s 756 mmHg 88%
01:00 +7°C° 0 mm 3 m/s 756 mmHg 89%
02:00 +7°C° 0 mm 3 m/s 756 mmHg 88%
03:00 +7°C° 0 mm 3 m/s 755 mmHg 88%
04:00 +7°C° 0 mm 3 m/s 755 mmHg 88%
05:00 +7°C° 0 mm 3 m/s 755 mmHg 85%
06:00 +8°C° 0 mm 3 m/s 755 mmHg 82%
07:00 +9°C° 0 mm 3 m/s 755 mmHg 78%
08:00 +11°C° 0 mm 3 m/s 755 mmHg 75%
09:00 +13°C° 0 mm 3 m/s 755 mmHg 72%
10:00 +16°C° 0 mm 3 m/s 756 mmHg 69%
11:00 +17°C° 0 mm 3 m/s 755 mmHg 67%
12:00 +18°C° 0 mm 3 m/s 755 mmHg 66%
13:00 +19°C° 0 mm 3 m/s 755 mmHg 64%
14:00 +18°C° 0 mm 3 m/s 755 mmHg 67%
15:00 +18°C° 0 mm 2 m/s 754 mmHg 70%
16:00 +18°C° 0 mm 2 m/s 754 mmHg 74%
17:00 +16°C° 0 mm 2 m/s 754 mmHg 80%
18:00 +14°C° 0 mm 2 m/s 754 mmHg 87%
19:00 +13°C° 0 mm 2 m/s 754 mmHg 94%
20:00 +12°C° 0 mm 1 m/s 754 mmHg 94%
21:00 +12°C° 0 mm 1 m/s 755 mmHg 95%
22:00 +11°C° 0 mm 1 m/s 755 mmHg 95%
23:00 +11°C° 0 mm 1 m/s 755 mmHg 95%

Mâine, 20 Septembrie, Duminică

Timp Temperatura Precipitaţii Vânt Presiune Umiditate
00:00 +11°C° 0 mm 1 m/s 755 mmHg 95%
01:00 +10°C° 0 mm 1 m/s 755 mmHg 95%
02:00 +10°C° 0 mm 1 m/s 755 mmHg 95%
03:00 +10°C° 0 mm 1 m/s 755 mmHg 94%
04:00 +8°C° 0 mm 2 m/s 755 mmHg 94%
05:00 +9°C° 0 mm 2 m/s 755 mmHg 91%
06:00 +9°C° 0 mm 2 m/s 755 mmHg 88%
07:00 +10°C° 0 mm 2 m/s 755 mmHg 85%
08:00 +13°C° 0 mm 2 m/s 755 mmHg 79%
09:00 +15°C° 0 mm 2 m/s 755 mmHg 73%
10:00 +17°C° 0 mm 2 m/s 755 mmHg 67%
11:00 +18°C° 0 mm 2 m/s 755 mmHg 64%
12:00 +19°C° 0 mm 2 m/s 755 mmHg 61%
13:00 +20°C° 0 mm 2 m/s 755 mmHg 58%
14:00 +20°C° 0 mm 2 m/s 754 mmHg 60%
15:00 +20°C° 0 mm 1 m/s 754 mmHg 63%
16:00 +20°C° 0 mm 1 m/s 754 mmHg 65%
17:00 +17°C° 0 mm 2 m/s 754 mmHg 71%
18:00 +16°C° 0 mm 2 m/s 754 mmHg 78%
19:00 +14°C° 0 mm 2 m/s 754 mmHg 84%
20:00 +13°C° 0 mm 2 m/s 754 mmHg 85%
21:00 +13°C° 0 mm 2 m/s 754 mmHg 87%
22:00 +11°C° 0 mm 3 m/s 754 mmHg 89%
23:00 +12°C° 0 mm 2 m/s 753 mmHg 90%

Poimâine, 21 Septembrie, Luni

Timp Temperatura Precipitaţii Vânt Presiune Umiditate
00:00 +12°C° 0 mm 2 m/s 753 mmHg 91%
01:00 +10°C° 0 mm 2 m/s 753 mmHg 92%
02:00 +10°C° 0 mm 2 m/s 753 mmHg 91%
03:00 +10°C° 0 mm 2 m/s 753 mmHg 91%
04:00 +9°C° 0 mm 2 m/s 753 mmHg 90%
05:00 +10°C° 0 mm 2 m/s 753 mmHg 88%
06:00 +12°C° 0 mm 2 m/s 753 mmHg 85%
07:00 +12°C° 0 mm 2 m/s 753 mmHg 82%
08:00 +14°C° 0 mm 2 m/s 752 mmHg 74%
09:00 +16°C° 0 mm 3 m/s 752 mmHg 66%
10:00 +18°C° 0 mm 3 m/s 752 mmHg 57%
11:00 +19°C° 0 mm 3 m/s 752 mmHg 55%
12:00 +20°C° 0 mm 3 m/s 752 mmHg 52%
13:00 +21°C° 0 mm 3 m/s 752 mmHg 49%
14:00 +21°C° 0 mm 2 m/s 751 mmHg 53%
15:00 +21°C° 0 mm 2 m/s 751 mmHg 57%
16:00 +20°C° 0 mm 2 m/s 751 mmHg 61%
17:00 +18°C° 0 mm 2 m/s 751 mmHg 66%
18:00 +17°C° 0 mm 2 m/s 750 mmHg 70%
19:00 +15°C° 0 mm 2 m/s 750 mmHg 75%
20:00 +14°C° 0 mm 2 m/s 750 mmHg 76%
21:00 +14°C° 0 mm 2 m/s 750 mmHg 78%
22:00 +14°C° 0 mm 2 m/s 750 mmHg 80%
23:00 +13°C° 0 mm 2 m/s 750 mmHg 81%

22 Septembrie, Marţi

Timp Temperatura Precipitaţii Vânt Presiune Umiditate
00:00 +13°C° 0 mm 2 m/s 749 mmHg 81%
01:00 +12°C° 0 mm 2 m/s 749 mmHg 82%
02:00 +12°C° 0 mm 2 m/s 749 mmHg 82%
03:00 +12°C° 0 mm 2 m/s 749 mmHg 82%
04:00 +12°C° 0 mm 2 m/s 749 mmHg 82%
05:00 +13°C° 0 mm 2 m/s 749 mmHg 80%
06:00 +13°C° 0 mm 2 m/s 749 mmHg 77%
07:00 +13°C° 0 mm 3 m/s 749 mmHg 75%
08:00 +16°C° 0 mm 3 m/s 749 mmHg 69%
09:00 +19°C° 0 mm 3 m/s 749 mmHg 63%
10:00 +21°C° 0 mm 3 m/s 749 mmHg 58%
11:00 +22°C° 0 mm 4 m/s 748 mmHg 54%
12:00 +23°C° 0 mm 4 m/s 748 mmHg 51%
13:00 +25°C° 0 mm 4 m/s 748 mmHg 47%
14:00 +25°C° 0 mm 4 m/s 747 mmHg 50%
15:00 +23°C° 0 mm 4 m/s 747 mmHg 53%
16:00 +24°C° 0 mm 3 m/s 746 mmHg 56%
17:00 +21°C° 0 mm 3 m/s 746 mmHg 60%
18:00 +20°C° 0 mm 3 m/s 746 mmHg 64%
19:00 +18°C° 0 mm 4 m/s 746 mmHg 67%
20:00 +18°C° 0 mm 4 m/s 746 mmHg 67%
21:00 +18°C° 0 mm 4 m/s 745 mmHg 66%
22:00 +17°C° 0 mm 5 m/s 745 mmHg 65%
23:00 +17°C° 0 mm 4 m/s 745 mmHg 67%

23 Septembrie, Miercuri

Timp Temperatura Precipitaţii Vânt Presiune Umiditate
00:00 +17°C° 0 mm 4 m/s 745 mmHg 68%
01:00 +15°C° 0 mm 4 m/s 745 mmHg 70%
02:00 +15°C° 0 mm 4 m/s 744 mmHg 71%
03:00 +14°C° 0 mm 4 m/s 744 mmHg 73%
04:00 +14°C° 0 mm 4 m/s 744 mmHg 74%
05:00 +14°C° 0 mm 4 m/s 744 mmHg 73%
06:00 +15°C° 0 mm 4 m/s 743 mmHg 72%
07:00 +15°C° 0 mm 4 m/s 743 mmHg 71%
08:00 +18°C° 0 mm 4 m/s 743 mmHg 66%
09:00 +20°C° 0 mm 4 m/s 743 mmHg 60%
10:00 +22°C° 0 mm 4 m/s 743 mmHg 55%
11:00 +23°C° 0 mm 4 m/s 743 mmHg 52%
12:00 +25°C° 0 mm 5 m/s 743 mmHg 49%
13:00 +26°C° 0 mm 5 m/s 742 mmHg 45%
14:00 +26°C° 0 mm 4 m/s 742 mmHg 50%
15:00 +25°C° 0 mm 4 m/s 742 mmHg 54%
16:00 +25°C° 0 mm 3 m/s 741 mmHg 59%
17:00 +22°C° 0 mm 3 m/s 741 mmHg 62%
18:00 +21°C° 0 mm 4 m/s 741 mmHg 65%
19:00 +19°C° 0 mm 4 m/s 741 mmHg 68%
20:00 +19°C° 0 mm 4 m/s 741 mmHg 70%
21:00 +18°C° 0 mm 3 m/s 741 mmHg 71%
22:00 +18°C° 0 mm 3 m/s 741 mmHg 72%
23:00 +17°C° 0 mm 3 m/s 741 mmHg 74%

24 Septembrie, Joi

Timp Temperatura Precipitaţii Vânt Presiune Umiditate
00:00 +17°C° 0 mm 3 m/s 741 mmHg 76%
01:00 +16°C° 0 mm 3 m/s 741 mmHg 78%
02:00 +16°C° 0 mm 3 m/s 741 mmHg 78%
03:00 +16°C° 0 mm 3 m/s 741 mmHg 78%
04:00 +16°C° 0 mm 3 m/s 741 mmHg 78%
05:00 +16°C° 0.3 mm 3 m/s 741 mmHg 79%
06:00 +16°C° 0.3 mm 3 m/s 741 mmHg 80%
07:00 +17°C° 0.3 mm 3 m/s 741 mmHg 81%
08:00 +18°C° 0.5 mm 3 m/s 741 mmHg 79%
09:00 +20°C° 0.5 mm 3 m/s 741 mmHg 76%
10:00 +21°C° 0.5 mm 3 m/s 742 mmHg 74%
11:00 +22°C° 0.8 mm 3 m/s 742 mmHg 71%
12:00 +22°C° 0.8 mm 3 m/s 742 mmHg 68%
13:00 +24°C° 0.8 mm 2 m/s 742 mmHg 65%
14:00 +23°C° 1.2 mm 2 m/s 742 mmHg 69%
15:00 +23°C° 1.2 mm 1 m/s 742 mmHg 73%
16:00 +22°C° 1.2 mm 1 m/s 741 mmHg 77%
17:00 +21°C° 0.1 mm 1 m/s 742 mmHg 79%
18:00 +20°C° 0.1 mm 1 m/s 742 mmHg 82%
19:00 +19°C° 0.1 mm 1 m/s 742 mmHg 84%
20:00 +18°C° 0 mm 1 m/s 742 mmHg 85%
21:00 +18°C° 0 mm 1 m/s 742 mmHg 85%
22:00 +16°C° 0 mm 2 m/s 741 mmHg 86%
23:00 +16°C° 0 mm 2 m/s 741 mmHg 87%
Arată mai mult